Lid_Strength_Index
13 16 18 17 16 16 16 17 18 18 15 16 16 16 15 14 14 15 15 15 14 13 12 12 12 14 14 14 14 14 14 14 16 16 15 16 17 17 17 16 15 15 14 14
15 18 15 13 14 14 15 16 16 16 15 16 16 17 16 15 16 15 16 16 15 14 13 13 13 14 15 16 15 14 14 14 14 15 15 15 16 16 17 17 16 15 15 14
16 15 13 14 15 15 16 17 17 17 15 15 16 19 17 17 16 16 15 15 15 15 15 13 15 14 16 16 16 15 15 14 14 14 14 15 15 16 16 16 16 15 15 15
16 14 14 15 17 16 16 15 15 15 17 20 17 24 20 19 19 18 17 17 17 16 15 14 14 16 14 15 16 15 14 14 14 14 15 15 16 16 15 15 16 15 15 14
17 16 16 16 16 16 17 15 15 15 18 19 17 19 22 18 21 21 20 17 16 16 16 15 14 15 14 15 16 16 15 15 14 14 15 15 16 16 16 16 16 16 15 15
16 13 15 16 15 14 14 15 15 15 18 26 19 19 21 22 21 21 19 14 15 17 16 15 14 14 16 17 15 15 17 15 16 15 15 16 16 16 16 17 16 16 15 15
15 15 15 14 16 15 16 18 24 23 26 26 21 19 26 20 20 20 20 16 14 16 17 16 15 15 17 17 16 16 16 19 18 18 16 16 16 16 16 16 16 16 16 16
17 21 20 15 17 17 17 18 19 24 28 25 20 27 22 17 16 16 17 17 16 17 15 14 15 16 18 18 17 17 17 17 20 21 18 16 16 16 16 16 17 17 16 16
20 18 14 14 14 15 18 21 19 21 19 23 22 21 17 17 17 17 16 15 17 17 15 15 15 14 16 17 19 18 18 19 17 19 21 18 17 16 17 17 17 17 17 16
19 24 15 14 14 14 16 17 20 20 24 22 23 23 24 23 19 17 18 18 17 17 15 14 14 13 15 19 19 19 21 21 21 20 18 19 18 17 17 17 17 17 17 16
18 23 19 15 23 22 17 17 21 20 21 25 26 28 21 21 19 19 19 16 17 19 17 15 14 16 16 18 19 19 19 20 20 22 21 19 18 17 17 17 17 17 17 16
15 23 22 23 22 22 23 22 21 22 24 22 22 27 19 19 18 17 18 15 17 16 16 15 15 13 13 17 18 18 18 19 20 20 20 21 21 18 16 16 16 17 17 16
15 20 26 25 23 19 24 26 28 26 24 26 27 28 19 16 19 19 21 21 20 17 18 17 15 15 16 17 15 14 15 15 15 16 17 19 19 20 19 18 16 16 17 17
14 21 22 27 25 19 25 23 29 29 29 30 27 26 21 21 21 19 21 21 21 19 17 19 20 20 15 15 15 16 14 13 13 14 15 16 16 17 18 18 17 17 17 17
17 25 20 21 18 18 20 20 25 29 29 27 27 27 23 23 22 21 19 16 14 14 14 15 18 20 21 17 15 14 14 14 15 16 17 16 17 18 18 18 18 17 17 17
16 22 19 21 17 17 19 17 19 21 28 29 27 26 23 21 24 21 18 15 14 14 13 13 14 15 15 17 16 14 14 14 15 15 15 15 16 18 18 20 21 20 18 21
21 22 21 22 18 19 23 21 20 23 25 24 25 23 21 21 18 20 20 20 16 14 14 14 15 14 14 15 13 16 15 15 15 14 14 15 16 16 17 19 20 20 20 22
20 23 22 24 22 30 21 17 16 18 20 20 19 19 18 19 21 21 21 20 21 18 16 15 16 15 15 14 14 14 14 16 16 16 14 14 15 16 16 20 20 21 23 20
18 25 27 27 28 22 18 17 19 20 18 16 17 16 16 16 18 20 16 17 18 18 18 18 17 16 16 16 15 14 13 13 15 15 16 14 14 15 16 18 18 19 23 21
16 21 23 25 28 26 22 16 15 16 22 15 15 17 17 17 23 19 18 17 17 17 17 17 16 16 16 16 15 15 15 14 13 13 13 13 14 14 15 15 16 18 21 19
20 23 25 24 24 21 16 15 15 23 21 14 14 16 18 20 18 17 17 17 17 17 17 16 17 17 17 16 16 16 15 15 13 12 12 12 12 13 14 15 17 17 18 17
23 25 24 24 27 26 14 16 19 18 17 14 15 16 17 17 17 17 17 17 17 18 17 17 17 17 16 16 16 16 16 14 14 13 12 12 13 12 12 16 16 17 17 17
22 21 23 21 18 15 16 19 18 21 20 18 19 17 18 19 18 17 18 19 19 18 18 18 18 18 17 16 16 17 16 15 14 14 14 14 13 12 11 15 16 15 17 17
19 20 22 21 19 18 18 18 18 21 21 22 21 22 20 23 20 20 20 20 20 19 19 18 19 19 18 17 16 17 16 15 15 16 15 14 14 13 13 11 11 14 15 16
20 20 22 19 18 17 15 17 20 20 20 20 23 24 24 25 24 26 25 25 24 22 21 20 20 19 19 18 17 17 15 16 16 15 15 14 13 14 13 12 11 12 13 13
23 21 23 21 19 19 18 21 21 19 17 20 22 23 25 27 24 28 25 26 28 24 23 21 21 21 20 19 18 17 16 16 15 16 15 14 14 13 12 12 11 8 7 8